Погода Форт-Шевченко

Погода Форт-Шевченко : погода сейчас, прогноз погоды и архив. Всё, что Вы хотите узнать о погоде Форт-Шевченко!

Хотите узнать прогноз погоды Форт-Шевченко? Тогда Вам сюда: Погода Форт-Шевченко

Поиск расширенной информации на нашем сайте:

Другие новости

Новости СМИ2

Главная страница сайта

Новости сайта

03.07.2017

Напоминаем, что на нашем специализированном сайте Метеоцентр.Азия вы можете получить высокодетализированные автоматические прогнозы погоды по пунктам России, СНГ и мира в авиационном формате (включающие направление и скорость ветра, видимость, явления погоды, количество и форму облачности, нижнюю и верхнюю границу облачности).


Погода Форт-Шевченко - сегодня

Время (UTC), дата Ветер
(°,м/с) 
Видим.   Явления Облачность Т
(°С)
Тd
(°С)
f(%) Тe
(°С)
Pmin
(гПа)
dP
(гПа)
Po
(мм)
O2
(г/м3)
Тmin Tmax R s Состояние
почвы
21 20.04.18 180 (Ю) 10 км    4/0 средняя 
[Ac trans]
+9.9 +7.4 84 +10  1006.7  0.1  757  293           
00 21.04.18 230 (ЮЗ) 10 км    4/0 средняя 
[Ac trans]
+10.8 +8.1 83 +11  1006.9  0.2  757  292           
06 21.04.18 230 (ЮЗ) 10 км    10/0 средняя 
[Ac As]
+10.8 +8 83 +9  1008.7  0.8  759  293  +9.7         
09 21.04.18 250 (З) 10 км    8/0 средняя 
[Ac trans]
+11.9 +8.6 80 +11  1009.1  0.4  759  292           
12 21.04.18 270 (З) 10 км    8/0 средняя 
[Ac trans]
+11.2 +8 81 +10  1009.2  0.1  759  292           
15 21.04.18 270 (З) 10 км    6/0 средняя 
[Ac trans]
+11.6 +8.8 83 +11  1009.6  0.4  759  292    +12.2       
18 21.04.18 290 (З) 10 км    ясно 
+11 +8.4 84 +11  1011.3  1.7  761  293    +12.2       
21 21.04.18 290 (З) 10 км    ясно 
+10.5 +8 84 +12  1011.7  0.4  761  294           
00 22.04.18 230 (ЮЗ) 10 км    ясно 
+10.2 +7.6 84 +11  1011.4  -0.3  761  294           
03 22.04.18 270 (З) 10 км    ясно 
+10.2 +7.3 82 +11  1011.1  -0.3  761  294           
06 22.04.18 200 (Ю) 10 км    3/0 верхняя 
[Ci sp]
+11.5 +8.6 82 +10  1009.8  0.6  761  293  +9.8         
09 22.04.18 200 (Ю) 10 км    3/0 верхняя 
[Ci sp]
+12.6 +9.7 82 +13  1010.6  -1.1  760  291           
12 22.04.18 200 (Ю) 10 км    ясно 
+12.4 +9.3 81 +11  1009.8  0.8  760  291           
15 22.04.18 180 (Ю) 10 км    ясно 
+11.5 +8.6 82 +10  1009.3  -0.5  759  292    +13       
18 22.04.18 140 (ЮВ) 10 км    6/0 средняя 
[Ac trans]
+11 +8 82 +10  1010.7  1.4  760  293    +13       
21 22.04.18 180 (Ю) 10 км    10/0 средняя 
[Ac As]
+10.9 +8 82 +11  1010.5  -0.2  760  293           
00 23.04.18 140 (ЮВ) 10 км    10/0 средняя 
[Ac As]
+11.3 +8 80 +11  1008.9  -1.6  759  292           
06 23.04.18 230 (ЮЗ) 10 км    9/0 средняя 
[Ac cuf]
+12.8 +9.9 83 +13  1010  0.6  760  291  +10.7         
09 23.04.18 250 (З) 10 км    6/0 средняя 
[Ac trans]
+14 +8.6 70 +14  1010.8  0.8  760  290           
12 23.04.18 250 (З) 20000 м    4/0 средняя 
[Ac trans]
+13.3 +9.2 76 +13  1011.3  0.5  761  291           
15 23.04.18 180 (Ю) 10 км    3/0 средняя 
[Ac trans]
+12 +8.4 79 +11  1011.3  0.2  761  292    +14.2       
18 23.04.18 180 (Ю) 10 км    3/0 средняя 
[Ac trans]
+10.8 +7.7 81 +10  1012.8  1.5  762  294    +14.2       
21 23.04.18 230 (ЮЗ) 10 км    8/0 средняя 
[Ac trans]
+11.5 +8.9 84 +10  1013.2  0.4  762  293           
00 24.04.18 200 (Ю) 10 км    8/0 средняя 
[Ac trans]
+11.2 +8.5 83 +10  1013.8  0.6  763  294           
09 24.04.18 320 (СЗ) 10 км    3/0 верхняя 
[Ci sp]
+12.1 -1.4 39 +11  1019.9  2.1  767  296           
Время (UTC), дата Ветер
(°,м/с) 
Видим.   Явления Облачность Т
(°С)
Тd
(°С)
f(%) Тe
(°С)
Pmin
(гПа)
dP
(гПа)
Po
(мм)
O2
(г/м3)
Тmin Tmax R s Состояние
почвы

Для получения пояснительной информации подведите курсор к названию столбца.

ПОГОДА Форт-Шевченко - архив

Всё, что Вы хотите узнать о погоде Форт-Шевченко - удобно и подробно!

Выберите нужную дату (начиная с 1 января 2015* года) и нажмите кнопку "Найти".
Будут отображены архивные сводки погоды по пункту Форт-Шевченко, начиная с указанной даты.


Отображать данные в формате CSV (для использования в таблицах Excel)


Внимание! Наш архив погоды предназначен исключительно для личного некоммерческого использования в познавательных целях. Если Вам необходимы официальные справки о состоянии погоды (для производственных, юридических, коммерческих и т.п. целей), обращайтесь в органы Росгидромета.

*Примечание: данная дата относится к архиву по метеостанциям СССР (Россия, СНГ, Балтия).
Архив по метеостанциям Зарубежной Европы и Азии (кроме Китая) хранится 10 дней, по другим регионам земного шара (Китай, Африка, Америка, Австралия, Океания) - 1 день.

Форт-Шевченко - район местоположения метеостанции


Название, широта, долгота, высота метеостанции:
Форт-Шевченко 44.6°ш. 50.2°д. -25 м над ур. моря [Казахстан]

Дополнительная информация

В oтличие oт бoльшинства пoгoдных сайтoв мы публикуем пoдрoбную метеoинфoрмацию в детальнoм прoфессиoнальнoм фoрмате.

Характеристики температуры и влажнoсти вoздуха измеряются на высoте 2 м в тени вдали oт зданий и деревьев.
Скoрoсть ветра измеряется на высoте 10 м (на урoвне рoста челoвека скoрoсть ветра ниже в 1.5-2 раза). Если метеoстанция нахoдится в гoрoде или в лесу, тo скoрoсть ветра занижена на 2-4 м/с пo сравнению с oткрытым местoм. Скoрoсть ветра над акватoриями крупных рек и oзёр, а также на вершинах хoлмoв на 2-5 м/с выше, чем в oбычных услoвиях.
Атмoсфернoе давление в разных тoчках местнoсти мoжет значительнo oтличаться oт давления на метеoстанции, в зависимoсти oт услoвий рельефа (при пoдъёме на 10 м давление пoнижается примернo на 1 мм рт.ст.).